Location: Newark
(51.3318°N, 0.0053°E)
Time: 06:53:58
(UTC+00:00)

LO-87 - Pass Details

Date: 30 June 2022
Orbit: 450 x 466 km, 97.4° (Epoch: 15 August)

Event Time Altitude Azimuth Distance (km) Brightness Sun altitude
Exits shadow 22:21:49 11° 109° (ESE) 1,566 ? -12.2°
Maximum altitude 22:24:12 19° 63° (ENE) 1,154 ? -12.4°
Drops below altitude 10° 22:26:46 10° 16° (NNE) 1,629 ? -12.5°
Sets 22:29:13 0° 359° (N) 2,516 ? -12.7°
